x

9415115 - Pittsburg (suisun Bay), Ca (psbc1) Weather Station

11:54am - Tue 30th Jun 2015 All times are PDT. -7 hours from GMT.

  • Wind
    3mph, 5mph gusts
  • Air Temp 81°f
  • Sea Pressure 1011.1mb
  • 9415115 - Pittsburg (suisun Bay), Ca
  • 9415115 - Pittsburg (suisun Bay), Ca

More Historic Weather Station data

Upgrade to MSW Pro to gain access to the past 30 days of data for over 8000 Wavebouys and Weather Stations around the globe.

Join Pro

Comparision Forecast

View Surf forecast
   
Tue 06/30 11:54am 3 5 mph 1011.1mb 81f
11:48am 5
mph
1011.1mb 80f
11:42am 3 6 mph 1011.1mb 81f
11:36am 5 6 mph 1011.1mb 81f
11:30am 5 6 mph 1011.1mb 80f
11:24am 5 7 mph 1011.2mb 80f
11:18am 6 9 mph 1011.1mb 80f
11:12am 8 9 mph 1011.1mb 80f
11:06am 7 8 mph 1011.1mb 79f
11:00am 6 7 mph 1011.2mb 79f
10:54am 5 6 mph 1011.2mb 78f
10:48am 2 6 mph 1011.2mb 78f
10:42am 6 9 mph 1011.2mb 77f
10:36am 7 10 mph 1011.1mb 78f
10:30am 7 10 mph 1011.2mb 77f
10:24am 8 10 mph 1011.2mb 76f
10:18am 6 10 mph 1011.2mb 77f
10:12am 7 10 mph 1011.2mb 76f
10:06am 8 10 mph 1011.2mb 76f
10:00am 8 13 mph 1011.3mb 76f
9:54am 8 10 mph 1011.2mb 75f
9:48am 7 13 mph 1011.3mb 74f
9:42am 9 14 mph 1011.3mb 74f
9:36am 10 14 mph 1011.3mb 73f
9:30am 10 15 mph 1011.2mb 73f
9:24am 10 14 mph 1011.2mb 73f
9:18am 9 13 mph 1011.1mb 73f
9:12am 9 10 mph 1011.1mb 73f
9:06am 8 10 mph 1011.2mb 73f
9:00am 8 11 mph 1011.2mb 72f
8:54am 8 11 mph 1011.3mb 72f
8:48am 7 9 mph 1011.4mb 72f
8:42am 8 10 mph 1011.4mb 71f
8:36am 7 10 mph 1011.5mb 71f
8:30am 8 11 mph 1011.4mb 71f
8:24am 8 13 mph 1011.4mb 70f
8:18am 10 13 mph 1011.3mb 70f
8:12am 10 14 mph 1011.4mb 70f
8:06am 10 14 mph 1011.3mb 69f
8:00am 11 16 mph 1011.2mb 69f
7:54am 10 14 mph 1011.2mb 69f
7:48am 13 16 mph 1011.1mb 68f
7:42am 11 17 mph 1011.2mb 68f
7:36am 13 16 mph 1011.2mb 67f
7:30am 11 17 mph 1011.2mb 67f
7:24am 15 18 mph 1011.2mb 67f
7:18am 14 17 mph 1011.2mb 67f
7:12am 14 18 mph 1011.1mb 67f
7:06am 13 17 mph 1011.1mb 67f
7:00am 13 18 mph 1011.1mb 67f
6:54am 14 18 mph 1011mb 67f
6:48am 14 18 mph 1010.9mb 67f
6:42am 14 18 mph 1010.9mb 66f
6:36am 15 21 mph 1010.8mb 66f
6:30am 17 21 mph 1010.8mb 66f
6:24am 15 20 mph 1010.8mb 66f
6:18am 16 21 mph 1010.7mb 66f
6:12am 15 20 mph 1010.7mb 66f
6:06am 15 18 mph 1010.7mb 66f
6:00am 15 20 mph 1010.5mb 67f
5:54am 16 18 mph 1010.5mb 66f
5:48am 15 18 mph 1010.4mb 66f
5:42am 15 20 mph 1010.3mb 66f
5:36am 15 18 mph 1010.3mb 66f
5:30am 14 18 mph 1010.4mb 67f
5:24am 15 18 mph 1010.3mb 67f
5:18am 16 20 mph 1010.2mb 67f
5:12am 16 21 mph 1010.2mb 66f
5:06am 16 21 mph 1010.3mb 66f
5:00am 15 20 mph 1010.4mb 67f
4:54am 14 18 mph 1010.5mb 67f
4:48am 15 18 mph 1010.5mb 67f
4:42am 14 18 mph 1010.5mb 67f
4:36am 14 17 mph 1010.5mb 67f
4:30am 15 18 mph 1010.5mb 67f
4:24am 15 20 mph 1010.4mb 67f
4:18am 15 17 mph 1010.5mb 68f
4:12am 14 17 mph 1010.5mb 68f
4:06am 14 17 mph 1010.5mb 68f
4:00am 14 17 mph 1010.5mb 68f
3:54am 15 17 mph 1010.5mb 68f
3:48am 14 17 mph 1010.6mb 68f
3:42am 14 17 mph 1010.6mb 68f
3:36am 14 17 mph 1010.6mb 68f
3:30am 14 17 mph 1010.5mb 68f
3:24am 14 18 mph 1010.6mb 68f
3:18am 14 17 mph 1010.7mb 69f
3:12am 14 16 mph 1010.7mb 69f
3:06am 14 18 mph 1010.7mb 69f
3:00am 15 17 mph 1010.7mb 69f
2:54am 14 18 mph 1010.8mb 69f
2:48am 15 18 mph 1010.7mb 69f
2:42am 15 17 mph 1010.7mb 70f
2:36am 14 16 mph 1010.7mb 70f
2:30am 13 15 mph 1010.8mb 71f
2:24am 13 15 mph 1010.8mb 71f
2:18am 11 15 mph 1010.8mb 70f
2:12am 13 15 mph 1010.8mb 70f
2:06am 13 15 mph 1010.8mb 71f
2:00am 13 15 mph 1010.9mb 70f
1:54am 11 15 mph 1010.9mb 70f
1:48am 14 16 mph 1010.9mb 70f
1:42am 14 16 mph 1011mb 69f
1:36am 14 16 mph 1010.9mb 69f
1:30am 13 16 mph 1010.9mb 70f
1:24am 13 17 mph 1010.9mb 69f
1:18am 15 20 mph 1010.8mb 70f
1:12am 15 18 mph 1010.8mb 70f
1:06am 15 20 mph 1010.8mb 70f
1:00am 14 17 mph 1010.9mb 71f
12:54am 15 18 mph 1011mb 70f
12:48am 15 20 mph 1010.9mb 70f
12:42am 16 20 mph 1010.8mb 70f
12:36am 16 20 mph 1010.8mb 71f
12:30am 15 17 mph 1010.8mb 71f
12:24am 13 17 mph 1010.8mb 72f
12:18am 14 16 mph 1010.8mb 71f
12:12am 14 16 mph 1010.9mb 72f
12:06am 14 18 mph 1011mb 72f
12:00am 14 17 mph 1011mb 72f
Mon 06/29 11:54pm 14 18 mph 1011mb 72f
11:48pm 14 18 mph - -
11:42pm 14 17 mph - -
11:36pm 14 18 mph - -
11:30pm 13 17 mph 1011.3mb 74f
11:24pm 13 16 mph 1011.4mb 75f
11:18pm 13 16 mph 1011.3mb 75f
11:12pm 13 15 mph 1011.4mb 74f
11:06pm 13 15 mph 1011.4mb 75f
11:00pm 11 16 mph 1011.5mb 75f
10:54pm 13 15 mph 1011.4mb 76f
10:48pm 10 13 mph 1011.4mb 77f
10:42pm 11 14 mph 1011.5mb 76f
10:36pm 9 11 mph 1011.5mb 76f
10:30pm 10 14 mph 1011.5mb 76f
10:24pm 13 15 mph 1011.5mb 77f
10:18pm 13 16 mph 1011.5mb 78f
10:12pm 13 15 mph 1011.4mb 79f
10:06pm 13 16 mph 1011.4mb 80f
10:00pm 10 15 mph 1011.5mb 80f
9:54pm 9 16 mph 1011.5mb 80f
9:48pm 9 14 mph 1011.4mb 80f
9:42pm 11 17 mph 1011.4mb 80f
9:36pm 11 17 mph 1011.3mb 80f
9:30pm 11 16 mph 1011.2mb 80f
9:24pm 13 15 mph 1011.2mb 79f
9:18pm 11 16 mph 1011.1mb 80f
9:12pm 9 14 mph 1011.1mb 80f
9:06pm 9 15 mph 1011.1mb 80f
9:00pm 8 14 mph 1011.1mb 80f
8:54pm 11 14 mph 1011.1mb 78f
8:48pm 10 15 mph 1011.1mb 77f
8:42pm 10 14 mph 1011.1mb 77f
8:36pm 10 14 mph 1011.1mb 77f
8:30pm 13 15 mph 1011.1mb 77f
8:24pm 13 15 mph 1011.1mb 77f
8:18pm 11 15 mph 1011mb 77f
8:12pm 14 18 mph 1010.9mb 82f
8:06pm 13 16 mph 1011mb 82f
8:00pm 13 16 mph 1011mb 83f
7:54pm 11 14 mph 1011mb 79f
7:48pm 10 13 mph 1011mb 78f
7:42pm 10 14 mph 1011mb 78f
7:36pm 9 14 mph 1011mb 80f
7:30pm 11 15 mph 1011mb 80f
7:24pm 13 16 mph 1011mb 79f
7:18pm 14 20 mph 1010.9mb 78f
7:12pm 16 18 mph 1010.8mb 78f
7:06pm 15 20 mph 1010.9mb 78f
7:00pm 14 18 mph 1010.9mb 78f
6:54pm 15 20 mph 1010.9mb 78f
6:48pm 16 18 mph 1010.9mb 78f
6:42pm 16 20 mph 1010.8mb 78f
6:36pm 15 18 mph 1010.8mb 78f
6:30pm 15 20 mph 1010.8mb 78f
6:24pm 15 20 mph 1010.8mb 79f
6:18pm 15 18 mph 1010.8mb 79f
6:12pm 16 18 mph 1010.8mb 79f
6:06pm 16 20 mph 1010.9mb 79f
6:00pm 15 20 mph 1010.9mb 79f
5:54pm 15 21 mph 1010.9mb 80f
5:48pm 17 20 mph 1010.9mb 80f
5:42pm 16 18 mph 1010.9mb 80f
5:36pm 15 18 mph 1011mb 81f
5:30pm 15 18 mph 1011mb 81f
5:24pm 14 17 mph 1011mb 80f
5:18pm 15 20 mph 1010.9mb 80f
5:12pm 16 22 mph 1010.9mb 80f
5:06pm 17 22 mph 1010.9mb 80f
5:00pm 17 21 mph 1010.9mb 80f
4:54pm 16 20 mph 1011mb 80f
4:48pm 16 21 mph 1011.1mb 80f
4:42pm 16 20 mph 1011.1mb 79f
4:36pm 17 21 mph 1011.2mb 80f
4:30pm 17 21 mph 1011.3mb 80f
4:24pm 16 21 mph 1011.3mb 81f
4:18pm 17 21 mph 1011.4mb 80f
4:12pm 16 21 mph 1011.5mb 80f
4:06pm 17 21 mph 1011.6mb 80f
4:00pm 18 22 mph 1011.7mb 80f
3:54pm 17 22 mph 1011.8mb 80f
3:48pm 17 22 mph 1011.8mb 81f
3:42pm 17 21 mph 1011.8mb 80f
3:36pm 17 21 mph 1011.9mb 80f
3:30pm 16 21 mph 1012.1mb 80f
3:24pm 16 20 mph 1012.2mb 80f
3:18pm 16 20 mph 1012.2mb 80f
3:12pm 16 20 mph 1012.3mb 79f
3:06pm 15 20 mph 1012.3mb 79f
3:00pm 16 20 mph 1012.4mb 79f
2:54pm 16 21 mph 1012.4mb 79f
2:48pm 17 21 mph 1012.5mb 79f
2:42pm 16 20 mph 1012.6mb 78f
2:36pm 16 20 mph 1012.7mb 78f
2:30pm 17 21 mph 1012.8mb 78f
2:24pm 16 21 mph 1012.9mb 78f
2:18pm 16 22 mph 1013mb 78f
2:12pm 16 22 mph 1013.1mb 77f
2:06pm 17 22 mph 1013.1mb 77f
2:00pm 16 21 mph 1013.1mb 77f
1:54pm 16 21 mph 1013.2mb 77f
1:48pm 16 20 mph 1013.3mb 77f
1:42pm 15 21 mph 1013.4mb 77f
1:36pm 16 20 mph 1013.4mb 76f
1:30pm 16 20 mph 1013.5mb 77f
1:24pm 16 20 mph 1013.6mb 76f
1:18pm 17 22 mph 1013.7mb 76f
1:12pm 18 22 mph 1013.6mb 75f
1:06pm 18 23 mph 1013.6mb 74f
1:00pm 17 22 mph 1013.7mb 74f
12:54pm 18 22 mph 1013.8mb 74f
12:48pm 17 22 mph 1013.9mb 74f
12:42pm 17 23 mph 1013.9mb 73f
12:36pm 18 22 mph 1013.9mb 73f
12:30pm 18 22 mph 1013.9mb 73f
12:24pm 17 22 mph 1014.1mb 72f
12:18pm 20 23 mph 1013.9mb 71f
12:12pm 18 24 mph 1014.1mb 71f
12:06pm 18 22 mph 1014.1mb 71f
12:00pm 16 21 mph 1014.3mb 71f
11:54am 17 22 mph 1014.4mb 71f
11:48am 18 23 mph 1014.3mb 70f
11:42am 18 23 mph 1014.3mb 70f
11:36am 17 23 mph 1014.4mb 69f
11:30am 20 24 mph 1014.4mb 69f
11:18am 18 23 mph 1014.4mb 69f
11:12am 18 23 mph 1014.4mb 69f
11:06am 18 22 mph 1014.4mb 69f
11:00am 17 22 mph 1014.5mb 69f
10:54am 17 22 mph 1014.5mb 69f
10:48am 17 22 mph 1014.6mb 68f
10:42am 17 22 mph 1014.6mb 67f
10:36am 16 21 mph 1014.6mb 68f
10:30am 15 20 mph 1014.8mb 68f
10:24am 16 22 mph 1014.6mb 70f
10:18am 14 22 mph 1014.6mb 69f
10:12am 15 22 mph 1014.5mb 69f
10:06am 20 25 mph 1014.5mb 69f
10:00am 18 23 mph 1014.5mb 68f
9:54am 18 23 mph 1014.5mb 69f
9:48am 18 23 mph 1014.6mb 68f
9:42am 20 26 mph 1014.5mb 68f
9:36am 18 24 mph 1014.6mb 68f
9:30am 18 22 mph 1014.6mb 67f
9:24am 18 23 mph 1014.7mb 67f
9:18am 18 23 mph 1014.8mb 67f
9:12am 15 22 mph 1014.9mb 66f
9:06am 14 17 mph 1014.9mb 67f
9:00am 13 17 mph 1014.9mb 66f
8:54am 13 16 mph 1014.9mb 66f
8:48am 11 15 mph 1014.8mb 66f
8:42am 10 18 mph 1014.8mb 65f
8:36am 15 20 mph 1014.5mb 65f
8:30am 15 18 mph 1014.4mb 64f
8:24am 16 23 mph 1014.3mb 64f
8:18am 17 22 mph 1014.2mb 63f
8:12am 16 22 mph 1014.2mb 63f
8:06am 17 23 mph 1014.2mb 63f
8:00am 18 22 mph 1014.2mb 62f
7:54am 20 24 mph 1014.2mb 62f
7:48am 18 23 mph 1014.3mb 62f
7:42am 18 23 mph 1014.3mb 61f
7:36am 15 22 mph 1014.5mb 61f
7:30am 17 22 mph 1014.4mb 61f
7:24am 18 24 mph 1014.3mb 60f
7:18am 17 25 mph 1014.2mb 61f
7:12am 23 29 mph 1013.9mb 60f
7:06am 23 29 mph 1013.9mb 60f
7:00am 21 25 mph 1014mb 60f
6:54am 20 26 mph 1014mb 60f
6:48am 22 28 mph 1013.9mb 60f
6:42am 22 29 mph 1013.9mb 60f
6:36am 21 28 mph 1014mb 60f
6:30am 21 29 mph 1014.1mb 59f
6:24am 21 28 mph 1014mb 60f
6:18am 22 28 mph 1013.8mb 59f
6:12am 21 29 mph 1013.8mb 59f
6:06am 24 31 mph 1013.7mb 60f
6:00am 24 31 mph 1013.7mb 60f
5:54am 23 30 mph 1013.9mb 60f
5:48am 22 29 mph 1014mb 60f
5:42am 20 26 mph 1013.9mb 60f
5:36am 21 28 mph 1013.9mb 60f
5:30am 20 26 mph 1013.8mb 60f
5:24am 21 26 mph 1013.7mb 59f
5:18am 21 26 mph 1013.8mb 59f
5:12am 21 28 mph 1013.7mb 60f
5:06am 21 26 mph 1013.7mb 60f
5:00am 22 28 mph 1013.8mb 59f
4:54am 18 24 mph 1013.9mb 59f
4:48am 17 23 mph 1013.8mb 59f
4:42am 20 24 mph 1013.6mb 60f
4:36am 18 28 mph 1013.6mb 60f
4:30am 23 28 mph 1013.5mb 60f
4:24am 23 29 mph 1013.5mb 60f
4:18am 23 29 mph 1013.5mb 60f
4:12am 23 29 mph 1013.5mb 60f
4:06am 25 29 mph 1013.6mb 60f
4:00am 22 29 mph 1013.7mb 61f
3:54am 21 26 mph 1013.8mb 61f
3:48am 21 26 mph 1013.8mb 61f
3:42am 21 26 mph 1013.8mb 61f
3:36am 20 24 mph 1013.8mb 61f
3:30am 16 22 mph 1014mb 61f
3:24am 16 25 mph 1014mb 60f
3:18am 18 24 mph 1013.9mb 60f
3:12am 17 24 mph 1014mb 60f
3:06am 16 24 mph 1014mb 60f
3:00am 18 24 mph 1013.8mb 60f
2:54am 22 26 mph 1013.7mb 60f
2:48am 20 26 mph 1013.7mb 61f
2:42am 22 29 mph 1013.6mb 61f
2:36am 22 28 mph 1013.7mb 61f
2:30am 17 23 mph 1014mb 61f
2:24am 17 28 mph 1014.1mb 61f
2:18am 17 26 mph 1014.1mb 61f
2:12am 22 29 mph 1014mb 61f
2:06am 22 29 mph 1013.8mb 62f
2:00am 23 29 mph 1013.8mb 62f
1:54am 23 30 mph 1013.8mb 62f
1:48am 21 28 mph 1013.9mb 62f
1:42am 22 29 mph 1013.8mb 62f
1:36am 21 28 mph 1013.8mb 62f
1:30am 22 29 mph 1013.6mb 62f
1:24am 22 31 mph 1013.5mb 62f
1:18am 24 31 mph 1013.5mb 62f
1:12am 22 29 mph 1013.7mb 62f
1:06am 22 30 mph 1013.6mb 62f
1:00am 21 29 mph 1013.5mb 62f
12:54am 18 28 mph 1013.7mb 62f
12:48am 20 28 mph 1013.8mb 62f
12:42am 18 24 mph 1013.8mb 63f
12:36am 20 26 mph 1013.7mb 63f
12:30am 20 29 mph 1013.6mb 62f
12:24am 22 26 mph 1013.6mb 62f
12:18am 21 26 mph 1013.7mb 63f
12:12am 20 26 mph 1013.7mb 62f
12:06am 21 29 mph 1013.7mb 63f
12:00am 20 28 mph 1013.5mb 63f
Sun 06/28 11:54pm 23 30 mph 1013.1mb 62f
11:48pm 20 28 mph - 63f
11:42pm 17 25 mph - 63f
11:36pm 20 28 mph - 63f
11:30pm 20 28 mph - 63f
11:24pm 16 25 mph - 63f
11:18pm 20 25 mph - -
11:12pm 17 25 mph - -
11:06pm 16 24 mph - -
11:00pm 17 28 mph 1013.4mb 64f
10:54pm 17 24 mph 1013.4mb 64f
10:48pm 18 26 mph 1013.3mb 64f
10:42pm 18 25 mph 1013.4mb 64f
10:36pm 17 25 mph 1013.4mb 65f
10:30pm 21 26 mph 1013.3mb 65f
10:24pm 18 25 mph 1013.4mb 65f
10:18pm 16 22 mph 1013.5mb 65f
10:12pm 18 24 mph 1013.5mb 65f
10:06pm 17 22 mph 1013.4mb 65f
10:00pm 16 23 mph 1013.5mb 66f
9:54pm 15 22 mph 1013.5mb 66f
9:48pm 15 23 mph 1013.4mb 66f
9:42pm 16 22 mph 1013.4mb 66f
9:36pm 18 23 mph 1013.2mb 66f
9:30pm 17 25 mph 1013.1mb 67f
9:24pm 18 24 mph 1012.9mb 67f
9:18pm 16 22 mph 1013mb 67f
9:12pm 18 25 mph 1013mb 67f
9:06pm 18 24 mph 1013mb 67f
9:00pm 17 22 mph 1013.1mb 68f
8:54pm 17 26 mph 1013mb 68f
8:48pm 18 26 mph 1013mb 69f
8:42pm 18 23 mph 1013mb 69f
8:36pm 20 25 mph 1013mb 69f
8:30pm 20 25 mph 1013.1mb 71f
8:18pm 20 25 mph 1013.1mb 71f
8:12pm 20 25 mph 1013.2mb 71f
8:06pm 18 25 mph 1013.3mb 72f
8:00pm 18 24 mph 1013.3mb 72f
7:54pm 14 17 mph 1013.4mb 73f
7:48pm 10 18 mph 1013.5mb 73f
7:42pm 16 22 mph 1013.2mb 74f
7:36pm 20 23 mph 1013mb 74f
7:30pm 22 26 mph 1012.9mb 74f
7:24pm 16 21 mph 1013.2mb 75f
7:18pm 15 21 mph 1013.2mb 75f
7:12pm 11 18 mph 1013.3mb 75f
7:06pm 14 17 mph 1013.2mb 74f
7:00pm 14 20 mph 1013.2mb 74f
6:54pm 14 18 mph 1013.1mb 75f
6:48pm 14 17 mph 1013.2mb 75f
6:42pm 13 17 mph 1013.2mb 75f
6:36pm 14 18 mph 1013.1mb 75f
6:30pm 14 18 mph 1013.1mb 76f
6:24pm 14 17 mph 1013mb 76f
6:18pm 11 15 mph 1013.2mb 77f
6:12pm 10 15 mph 1013.3mb 77f
6:06pm 10 14 mph 1013.4mb 77f
6:00pm 9 15 mph 1013.3mb 77f
5:54pm 8 14 mph 1013.4mb 77f
5:48pm 10 16 mph 1013.3mb 76f
5:42pm 10 16 mph 1013.2mb 77f
5:36pm 10 18 mph 1013.2mb 76f
5:30pm 15 20 mph 1013.1mb 76f
5:24pm 13 18 mph 1013.2mb 76f
5:18pm 15 20 mph 1013.2mb 76f
5:12pm 14 18 mph 1013.2mb 76f
5:06pm 15 20 mph 1013.1mb 78f
5:00pm 14 17 mph 1013.2mb 77f
4:54pm 13 17 mph 1013.2mb 78f
4:48pm 16 22 mph 1013.1mb 78f
4:42pm 15 22 mph 1013.1mb 77f
4:36pm 16 22 mph 1012.9mb 78f
4:24pm 18 22 mph 1012.9mb 77f
4:18pm 17 22 mph 1012.9mb 77f
4:12pm 17 22 mph 1012.9mb 77f
4:06pm 17 22 mph 1013mb 77f
4:00pm 18 24 mph 1013mb 77f
3:54pm 20 25 mph 1012.9mb 77f
3:48pm 18 24 mph 1012.9mb 77f
3:42pm 18 25 mph 1013mb 77f
3:36pm 17 25 mph 1013mb 75f
3:30pm 20 25 mph 1013mb 75f
3:24pm 21 26 mph 1012.9mb 75f
3:18pm 21 28 mph 1013mb 74f
3:12pm 18 26 mph 1013mb 74f
3:06pm 20 25 mph 1013mb 74f
3:00pm 22 28 mph 1013mb 74f
2:54pm 22 28 mph 1013.1mb 75f
2:48pm 22 26 mph 1013.2mb 74f
2:42pm 22 26 mph 1013.2mb 74f
2:36pm 22 26 mph 1013.2mb 74f
2:30pm 18 23 mph 1013.6mb 74f
2:24pm 16 22 mph 1013.7mb 75f
2:18pm 14 22 mph 1013.8mb 76f
2:12pm 14 23 mph 1013.7mb 76f
2:06pm 17 25 mph 1013.6mb 76f
2:00pm 17 25 mph 1013.6mb 76f
1:54pm 18 25 mph 1013.8mb 75f
1:48pm 17 22 mph 1013.9mb 75f
1:42pm 16 22 mph 1013.9mb 75f
1:36pm 17 23 mph 1013.8mb 74f
1:30pm 18 24 mph 1013.9mb 74f
1:24pm 20 25 mph 1013.9mb 74f
1:18pm 20 25 mph 1013.9mb 74f
1:12pm 21 25 mph 1013.8mb 74f
1:06pm 21 28 mph 1013.8mb 74f
1:00pm 17 26 mph 1014mb 72f
12:54pm 20 26 mph 1013.8mb 71f
12:48pm 23 29 mph 1013.7mb 71f
12:42pm 22 26 mph 1013.8mb 71f
12:36pm 23 28 mph 1013.8mb 71f
12:30pm 22 32 mph 1014mb 71f
12:24pm 22 28 mph 1014mb 71f
12:18pm 22 25 mph 1014.2mb 71f
12:12pm 18 25 mph 1014.2mb 71f
12:06pm 20 26 mph 1014.4mb 70f
12:00pm 20 26 mph 1014.3mb 70f
11:54am 18 24 mph 1014.4mb 69f
11:48am 20 24 mph 1014.3mb 69f
11:42am 21 28 mph 1014.2mb 69f
11:36am 21 26 mph 1014.3mb 69f
11:30am 23 28 mph 1014.3mb 69f
11:24am 22 28 mph 1014.3mb 69f
11:18am 21 26 mph 1014.3mb 68f
11:12am 21 25 mph 1014.3mb 68f
11:06am 18 25 mph 1014.5mb 68f
11:00am 22 26 mph 1014.3mb 67f
10:54am 21 28 mph 1014.2mb 67f
10:48am 21 25 mph 1014.2mb 67f
10:42am 21 29 mph 1014.2mb 67f
10:36am 20 24 mph 1014.4mb 67f
10:30am 21 25 mph 1014.4mb 66f
10:24am 20 24 mph 1014.4mb 66f
10:18am 21 26 mph 1014.5mb 66f
10:12am 22 28 mph 1014.3mb 66f
10:06am 21 25 mph 1014.3mb 66f
10:00am 20 26 mph 1014.3mb 66f
9:54am 21 24 mph 1014.2mb 67f
9:48am 18 25 mph 1014.4mb 67f
9:42am 20 25 mph 1014.3mb 67f
9:36am 21 25 mph 1014.2mb 67f
9:30am 20 26 mph 1014.3mb 67f
9:24am 20 25 mph 1014.4mb 67f
9:18am 18 23 mph 1014.3mb 67f
9:12am 18 23 mph 1014.4mb 67f
9:06am 20 25 mph 1014.4mb 67f
9:00am 18 24 mph 1014.4mb 66f
8:54am 18 22 mph 1014.4mb 66f
8:48am 20 24 mph 1014.4mb 66f
8:42am 21 24 mph 1014.3mb 65f
8:36am 18 22 mph 1014.4mb 65f
8:30am 18 23 mph 1014.4mb 65f
8:24am 20 24 mph 1014.3mb 65f
8:18am 18 22 mph 1014.5mb 65f
8:12am 18 24 mph 1014.4mb 65f
8:06am 18 23 mph 1014.3mb 65f
8:00am 18 25 mph 1014.4mb 64f
7:54am 17 23 mph 1014.5mb 64f
7:48am 18 23 mph 1014.5mb 64f
7:42am 18 23 mph 1014.5mb 64f
7:36am 21 25 mph 1014.4mb 64f
7:30am 21 25 mph 1014.2mb 64f
7:24am 21 25 mph 1014.2mb 64f
7:18am 18 24 mph 1014.4mb 64f
7:12am 20 23 mph 1014.4mb 64f
7:06am 20 24 mph 1014.4mb 64f
7:00am 18 24 mph 1014.3mb 64f
6:54am 17 23 mph 1014.2mb 64f
6:48am 18 25 mph 1014mb 64f
6:42am 22 25 mph 1014.1mb 64f
6:36am 20 25 mph 1013.9mb 64f
6:30am 20 24 mph 1014.1mb 64f
6:24am 17 24 mph 1014.1mb 64f
6:18am 22 24 mph 1013.9mb 64f
6:12am 18 26 mph 1014.1mb 64f
6:06am 18 25 mph 1014mb 64f
6:00am 18 28 mph 1013.9mb 64f
5:54am 22 25 mph 1013.8mb 64f
5:48am 21 29 mph 1013.4mb 64f
5:42am 22 30 mph 1013.1mb 64f
5:36am 21 28 mph 1013.3mb 64f
5:30am 22 28 mph 1013.3mb 64f
5:24am 21 25 mph 1013.2mb 64f
5:18am 22 28 mph 1013.3mb 64f
5:12am 21 26 mph 1013.4mb 64f
5:06am 21 25 mph 1013.2mb 64f
5:00am 18 25 mph 1013.5mb 64f
4:54am 18 23 mph 1013.6mb 64f
4:48am 16 22 mph 1013.7mb 64f
4:42am 17 23 mph 1013.7mb 64f
4:36am 16 22 mph 1013.7mb 64f
4:30am 17 22 mph 1013.6mb 63f
4:24am 17 24 mph 1013.6mb 63f
4:18am 16 22 mph 1013.5mb 63f
4:12am 16 22 mph 1013.6mb 63f
4:06am 13 21 mph 1013.6mb 64f
4:00am 17 22 mph 1013.2mb 64f
3:54am 17 23 mph 1013.2mb 64f
3:48am 18 25 mph 1013.1mb 64f
3:42am 18 23 mph 1013.2mb 64f
3:36am 21 26 mph 1013.4mb 64f
3:30am 15 22 mph 1013.8mb 64f
3:24am 16 24 mph 1013.3mb 64f
3:18am 20 24 mph 1013mb 63f
3:12am 17 24 mph 1013.1mb 64f
3:06am 21 29 mph 1012.8mb 64f
3:00am 24 30 mph - 64f
2:54am 23 29 mph - 64f
2:48am  -  mph 1013.7mb -
2:42am  -  mph 1014.2mb -
2:36am  -  mph 1014.4mb -
2:30am  -  mph 1014.1mb -
2:24am  -  mph 1013.8mb -
2:18am  -  mph - 64f
2:12am  -  mph - 64f
2:06am  -  mph - 64f
2:00am 21 25 mph 1013.5mb 64f
1:54am 20 26 mph 1013.7mb 64f
1:48am 18 24 mph 1014mb 64f
1:42am 16 23 mph 1014.2mb 64f
1:36am 20 25 mph 1013.6mb 64f
1:30am 23 29 mph 1013.1mb 64f
1:24am 23 29 mph 1013.3mb 64f
1:18am 24 29 mph 1013.3mb 64f
1:12am 23 28 mph 1013.2mb 64f
1:06am 21 26 mph 1013.4mb 64f
1:00am 20 25 mph 1013.4mb 64f
12:54am 21 24 mph 1013.9mb 64f
12:48am 20 24 mph 1013.7mb 64f
12:42am 21 26 mph 1013.6mb 64f
12:36am 20 26 mph 1013.7mb 64f
12:30am 20 24 mph 1013.8mb 64f
12:24am 20 24 mph 1014mb 64f
12:18am 20 24 mph 1014mb 64f
12:12am 21 25 mph 1014.1mb 64f
12:06am 22 28 mph 1013.9mb 64f
12:00am 18 23 mph 1014mb 65f
Sat 06/27 11:54pm 18 22 mph 1014.1mb 64f
11:48pm 16 23 mph 1014.4mb 64f
11:42pm 17 22 mph 1014.5mb 64f
11:36pm 17 22 mph 1014.5mb 64f
11:30pm 17 21 mph 1014.4mb 64f
11:24pm 14 18 mph 1014.5mb 65f
11:18pm 15 21 mph - 65f
11:12pm 13 17 mph - 65f
11:06pm 15 21 mph - 65f
11:00pm 17 21 mph 1014.2mb 65f
10:54pm 15 18 mph 1014.6mb 65f
10:48pm 13 17 mph 1014.7mb 65f
10:42pm 15 18 mph 1014.7mb 65f
10:36pm 14 17 mph 1014.7mb 65f
10:30pm 14 22 mph 1014.4mb 65f
10:24pm 15 22 mph 1014.2mb 65f
10:18pm 16 22 mph 1014.2mb 65f
10:12pm 18 22 mph 1014.2mb 65f
10:06pm 15 18 mph 1014.3mb 65f
10:00pm 14 18 mph 1014.3mb 65f
9:54pm 14 18 mph 1014.4mb 65f
9:48pm 11 16 mph 1014.4mb 65f
9:42pm 14 18 mph 1014.2mb 65f
9:36pm 15 20 mph 1014.2mb 65f
9:30pm 15 22 mph 1014.1mb 66f
9:24pm 16 21 mph 1014.4mb 66f
9:18pm 15 20 mph 1014.3mb 66f
9:12pm 17 21 mph 1014.2mb 66f
9:06pm 15 20 mph 1014.3mb 66f
9:00pm 16 20 mph 1014.2mb 66f
8:54pm 15 23 mph 1014.2mb 66f
8:48pm 20 25 mph 1014.1mb 66f
8:42pm 21 24 mph 1014.1mb 67f
8:36pm 20 23 mph 1014mb 67f
8:30pm 17 23 mph 1014mb 67f
8:24pm 18 24 mph 1013.8mb 67f
8:18pm 20 23 mph 1013.8mb 68f
8:12pm 18 23 mph 1013.7mb 68f
8:06pm 18 23 mph 1013.7mb 68f
8:00pm 15 20 mph 1013.9mb 68f
7:54pm 17 21 mph 1014mb 68f
7:48pm 15 21 mph 1014mb 68f
7:42pm 20 23 mph 1014mb 68f
7:36pm 18 23 mph 1014mb 68f
7:30pm 18 22 mph 1014.1mb 68f
7:24pm 18 24 mph 1014.1mb 68f
7:18pm 18 23 mph 1014mb 69f
7:12pm 17 23 mph 1014.1mb 69f
7:06pm 17 22 mph 1013.9mb 69f
7:00pm 20 23 mph 1013.8mb 69f
6:54pm 20 22 mph 1013.8mb 69f
6:48pm 18 23 mph 1013.9mb 69f
6:42pm 17 21 mph 1013.9mb 70f
6:36pm 16 24 mph 1013.7mb 69f
6:30pm 20 28 mph 1013.4mb 69f
6:24pm 24 30 mph 1013.1mb 70f
6:18pm 26 30 mph 1013.1mb 70f
6:12pm 23 29 mph 1013.2mb 70f
6:06pm 25 29 mph 1013.2mb 70f
6:00pm 24 28 mph 1013.2mb 70f
5:54pm 23 26 mph 1013.1mb 71f
5:48pm 20 23 mph 1013.3mb 71f
5:42pm 21 26 mph 1013.3mb 71f
5:36pm 21 26 mph 1013.2mb 71f
5:30pm 20 23 mph 1013.4mb 71f
5:24pm 17 23 mph 1013.4mb 71f
5:18pm 17 21 mph 1013.5mb 72f
5:12pm 17 23 mph 1013.6mb 71f
5:06pm 16 22 mph 1013.5mb 72f
5:00pm 18 22 mph 1013.6mb 72f
4:54pm 17 23 mph 1013.4mb 72f
4:48pm 21 25 mph 1013.3mb 72f
4:42pm 18 25 mph 1013.4mb 72f
4:36pm 20 23 mph 1013.3mb 72f
4:30pm 17 24 mph 1013.3mb 72f
4:24pm 18 23 mph 1013.4mb 73f
4:18pm 18 22 mph 1013.4mb 73f
4:12pm 17 21 mph 1013.3mb 73f
4:06pm 18 22 mph 1013.3mb 74f
4:00pm 16 24 mph 1013.4mb 73f
3:54pm 20 24 mph 1013.3mb 73f
3:48pm 17 23 mph 1013.4mb 73f
3:42pm 20 24 mph 1013.4mb 73f
3:36pm 17 22 mph 1013.4mb 73f
3:30pm 21 23 mph 1013.4mb 73f
3:24pm 18 23 mph 1013.4mb 73f
3:18pm 17 23 mph 1013.5mb 73f
3:12pm 16 23 mph 1013.5mb 73f
3:06pm 20 23 mph 1013.5mb 73f
3:00pm 20 23 mph 1013.6mb 73f
2:54pm 18 22 mph 1013.6mb 73f
2:48pm 18 24 mph 1013.7mb 73f
2:42pm 18 22 mph 1013.9mb 73f
2:36pm 18 24 mph 1013.8mb 73f
2:30pm 21 24 mph 1013.7mb 73f
2:24pm 23 26 mph 1013.8mb 72f
2:18pm 21 25 mph 1014mb 72f
2:12pm 16 23 mph 1014.2mb 72f
2:06pm 17 21 mph 1014.2mb 72f
2:00pm 16 22 mph 1014.4mb 72f
1:54pm 18 24 mph 1014.2mb 71f
1:48pm 20 24 mph 1014.3mb 71f
1:42pm 20 25 mph 1014.5mb 70f
1:36pm 21 25 mph 1014.4mb 71f
1:30pm 21 25 mph 1014.5mb 71f
1:24pm 20 29 mph 1014.4mb 71f
1:18pm 22 26 mph 1014.5mb 71f
1:12pm 25 30 mph 1014.3mb 71f
1:06pm 26 29 mph 1014.2mb 70f
1:00pm 22 29 mph 1014.5mb 71f
12:54pm 21 26 mph 1014.4mb 69f
12:48pm 22 26 mph 1014.6mb 69f
12:42pm 20 25 mph 1014.6mb 69f
12:36pm 21 25 mph 1014.6mb 69f
12:30pm 21 25 mph 1014.6mb 69f
12:24pm 18 28 mph 1014.6mb 69f
12:18pm 22 28 mph 1014.6mb 68f
12:12pm 23 28 mph 1014.6mb 68f
12:06pm 24 29 mph 1014.6mb 68f
12:00pm 23 28 mph 1014.7mb 68f
11:54am 22 28 mph 1014.6mb 68f
11:48am 23 26 mph 1014.5mb 67f
11:42am 23 28 mph 1014.5mb 67f
11:36am 22 28 mph 1014.5mb 67f
11:30am 22 26 mph 1014.5mb 67f
11:24am 21 28 mph 1014.4mb 67f
11:18am 22 26 mph 1014.5mb 67f
11:12am 22 26 mph 1014.5mb 67f
11:06am 21 28 mph 1014.5mb 66f
11:00am 21 26 mph 1014.4mb 66f
10:54am 22 25 mph 1014.4mb 66f
10:48am 22 26 mph 1014.5mb 66f
10:42am 21 26 mph 1014.4mb 66f
10:36am 21 25 mph 1014.4mb 66f
10:30am 18 24 mph 1014.3mb 66f
10:24am 16 22 mph 1014.5mb 67f
10:18am 16 23 mph 1014.4mb 67f
10:12am 18 23 mph 1014.4mb 66f
10:06am 17 22 mph 1014.4mb 67f
10:00am 16 20 mph 1014.4mb 67f
9:54am 17 21 mph 1014.4mb 66f
9:48am 16 22 mph 1014.4mb 66f
9:42am 15 22 mph 1014.5mb 65f
9:36am 18 22 mph 1014.4mb 65f
9:30am 17 22 mph 1014.5mb 65f
9:24am 17 23 mph 1014.4mb 65f
9:18am 17 22 mph 1014.2mb 65f
9:12am 17 23 mph 1014.2mb 64f
9:06am 18 24 mph 1014.1mb 63f
9:00am 20 24 mph 1014mb 63f
8:54am 21 24 mph 1013.9mb 63f
8:48am 20 26 mph 1013.8mb 64f
8:42am 20 24 mph 1013.8mb 64f
8:36am 20 24 mph 1013.7mb 63f
8:30am 21 25 mph 1013.5mb 63f
8:24am 20 25 mph 1013.7mb 63f
8:18am 20 25 mph 1013.6mb 63f
8:12am 17 24 mph 1013.6mb 63f
8:06am 20 25 mph 1013.6mb 62f
8:00am 20 25 mph 1013.5mb 62f
7:54am 21 28 mph 1013.4mb 62f
7:48am 20 29 mph 1013.3mb 62f
7:42am 21 28 mph 1013.3mb 62f
7:36am 22 29 mph 1013.3mb 62f
7:30am 22 30 mph 1013.3mb 62f
7:24am 22 28 mph 1013.2mb 61f
7:18am 22 28 mph 1013.3mb 61f
7:12am 21 28 mph 1013.3mb 61f
7:06am 17 24 mph 1013.3mb 61f
7:00am 18 23 mph 1013.4mb 61f
6:54am 18 26 mph 1013.3mb 61f
6:48am 17 25 mph 1013.3mb 60f
6:42am 16 24 mph 1013.3mb 60f
6:36am 17 25 mph 1013.2mb 60f
6:30am 22 29 mph 1013mb 60f
6:24am 21 29 mph 1012.9mb 60f
6:18am 23 29 mph 1012.8mb 60f
6:12am 22 28 mph 1012.8mb 60f
6:06am 20 26 mph 1012.8mb 60f
6:00am 18 25 mph 1012.7mb 60f
5:54am 22 26 mph 1012.7mb 60f
5:48am 20 25 mph 1012.6mb 60f
5:42am 21 29 mph 1012.7mb 60f
5:36am 18 29 mph 1012.7mb 60f
5:30am 21 29 mph 1012.6mb 60f
5:24am 20 25 mph 1012.5mb 61f
5:18am 21 25 mph 1012.5mb 61f
5:12am 21 26 mph 1012.4mb 61f
5:06am 21 26 mph 1012.4mb 61f
5:00am 22 30 mph 1012.3mb 61f
4:54am 24 29 mph 1012.1mb 61f
4:48am 22 30 mph 1012mb 61f
4:42am 23 29 mph 1012mb 61f
4:36am 23 28 mph 1012mb 61f
4:30am 24 30 mph 1011.8mb 61f
4:24am 24 29 mph 1011.8mb 62f
4:18am 23 30 mph 1011.8mb 62f
4:12am 24 28 mph 1011.8mb 62f
4:06am 23 28 mph 1011.8mb 62f
4:00am 21 26 mph 1011.8mb 62f
3:54am 22 28 mph 1011.9mb 62f
3:48am 23 29 mph 1011.9mb 62f
3:42am 20 26 mph 1011.8mb 62f
3:36am 21 29 mph 1011.8mb 62f
3:30am 22 26 mph 1011.7mb 62f
3:24am 23 28 mph 1011.7mb 62f
3:18am 22 26 mph 1011.7mb 62f
3:12am 22 25 mph 1011.8mb 62f
3:06am 20 25 mph 1012mb 62f
3:00am 22 26 mph 1011.9mb 62f
2:54am 24 28 mph 1011.9mb 61f
2:48am 23 29 mph 1011.9mb 62f
2:42am 23 29 mph 1011.9mb 62f
2:36am 22 29 mph 1012mb 62f
2:30am 22 29 mph 1011.9mb 63f
2:24am 21 26 mph 1012.1mb 63f
2:18am 22 26 mph 1012mb 63f
2:12am 20 26 mph 1011.9mb 63f
2:06am 22 29 mph 1011.9mb 63f
2:00am 24 29 mph 1012mb 63f
1:54am 22 29 mph 1012.1mb 64f
1:48am 23 26 mph 1012mb 63f
1:42am 21 26 mph 1011.8mb 63f
1:36am 21 25 mph 1011.9mb 63f
1:30am 21 24 mph 1012.1mb 63f
1:24am 18 23 mph 1012.1mb 63f
1:18am 18 26 mph 1012.1mb 63f
1:12am 22 26 mph 1011.9mb 63f
1:06am 20 24 mph 1012.1mb 64f
1:00am 20 25 mph 1012mb 63f
12:54am 22 28 mph 1011.8mb 63f
12:48am 22 29 mph 1011.8mb 63f
12:42am 23 29 mph 1011.9mb 63f
12:36am 24 31 mph 1011.9mb 62f
12:30am 25 32 mph 1011.8mb 62f
12:24am 26 32 mph 1011.7mb 63f
12:18am 25 30 mph 1011.7mb 63f
12:12am 24 31 mph 1011.8mb 63f
12:06am 24 31 mph 1011.7mb 63f
12:00am 24 29 mph 1011.8mb 63f
Fri 06/26 11:54pm 24 30 mph 1011.9mb 64f
11:48pm 24 30 mph 1011.9mb 63f
11:42pm 25 30 mph 1012mb 64f
11:36pm 25 31 mph 1012mb 64f
11:30pm 25 31 mph 1012.1mb 64f
11:24pm 25 31 mph 1012mb 64f
11:18pm 24 29 mph 1012mb 64f
11:12pm 23 29 mph 1012.2mb 65f
11:06pm 23 29 mph 1012.2mb 65f
11:00pm 22 30 mph 1012.1mb 65f
10:54pm 22 29 mph 1012.1mb 65f
10:48pm 23 29 mph 1012.1mb 65f
10:42pm 22 29 mph 1012.1mb 66f
10:36pm 23 28 mph 1012.1mb 66f
10:30pm 22 25 mph 1012.1mb 66f
10:24pm 21 24 mph 1012.1mb 67f
10:18pm 20 23 mph 1012.2mb 67f
10:12pm 20 23 mph 1012.1mb 67f
10:06pm 21 24 mph 1012mb 67f
10:00pm 22 26 mph 1011.8mb 67f
9:54pm 22 28 mph 1011.8mb 67f
9:48pm 23 26 mph 1011.8mb 67f
9:42pm 20 23 mph 1011.9mb 68f
9:36pm 17 22 mph 1011.8mb 68f
9:30pm 17 21 mph 1011.7mb 68f
9:24pm 16 22 mph 1011.7mb 69f
9:18pm 20 24 mph 1011.5mb 68f
9:12pm 20 24 mph 1011.4mb 69f
9:06pm 21 24 mph 1011.3mb 69f
9:00pm 18 23 mph 1011.3mb 69f
8:54pm 18 24 mph 1011.2mb 69f
8:48pm 20 25 mph 1011.1mb 70f
8:42pm 21 26 mph 1011.1mb 70f
8:36pm 24 28 mph 1011mb 70f
8:30pm 21 25 mph 1011mb 70f
8:24pm 20 25 mph 1010.9mb 70f
8:18pm 21 26 mph 1010.9mb 70f
8:12pm 20 25 mph 1010.9mb 71f
8:06pm 20 25 mph 1010.8mb 71f
8:00pm 21 26 mph 1010.7mb 71f
7:54pm 21 25 mph 1010.6mb 72f
7:48pm 23 29 mph 1010.4mb 72f